Airfield :
LOGIN :

Register | Disclaimer

   EN    FR    IT 

 










Legend :    VFR   Marginal VFR   IFR   Intensive IFR   Very Intensive IFR
Visi :
Ceiling :
>= 8 km
>= 3000ft
5 to 8 km
1000 to 3000 ft
1500m to 5 km
500 to 1000 ft
800 to 1500m
200 to 500 ft
< 800m
< 200 ft
Symbols :   Thunderstorms  Fog  Heavy snow  Heavy precipitations  Wind > 20 kt
SIGMETs :     Misc.  Thunderstorms  Icing  Turbulence  Mountain Waves  Volcanic Ashes







- Airport Elevation : 290 ft
- IATA code : OSI


LDOS - Osijek

CURRENT METAR :
  • 260530Z 04003KT CAVOK 23/21 Q1024

EXPIRED METARs :
  • 260500Z VRB01KT CAVOK 23/21 Q1024
  • 260430Z 14003KT CAVOK 21/20 Q1024
  • 260400Z 12003KT CAVOK 20/19 Q1024
  • 260330Z 32003KT CAVOK 19/18 Q1023
  • 260300Z 30003KT CAVOK 19/18 Q1023

TAF TAF LDOS
Valid from the 26 at 00:00 until the 27 at 00:00 UTC


252325Z 2600/2700 02005KT CAVOK TX31/2613Z TN19/2603Z
No reported NOTAMs for that airfield.



MET'MAP, your aeronautical weather chart ! - Copyright ORBIFLY December 2007 - Disclaimer

ORBIFLY MET'MAP TEAM :

Programming & Development : Alexandra Zaïnal
Concept & Development : Baudouin d'Aumeries
Co-Development & Prog : Marc-Olivier Méhu
Technical & hardware support : Manuel Goepfert

Contact : metmap@orbifly.com




SOURCES & CREDITS :

   NOAA